This is the latest recevied weather packets stored in our database for station/object N4DWK. If no packets are shown the sender has not sent any weather packets the latest 10 day(s).
| Time | Temp. | Humidity | Pressure | Rain* | Wind** | Luminosity | Snow |
|---|---|---|---|---|---|---|---|
| 1778162405 | 13.89° C | 83% | 1012.3 hPa | 0 mm | - | 28 W/m² | - |
| 1778162104 | 13.89° C | 82% | 1012.3 hPa | 0 mm | - | 35 W/m² | - |
| 1778161804 | 13.89° C | 82% | 1012.3 hPa | 0 mm | - | 30 W/m² | - |
| 1778161506 | 13.89° C | 83% | 1012.4 hPa | 0 mm | - | 33 W/m² | - |
| 1778161204 | 13.89° C | 83% | 1012.2 hPa | 0 mm | - | 39 W/m² | - |
| 1778160905 | 13.89° C | 84% | 1012 hPa | 0 mm | - | 40 W/m² | - |
| 1778160604 | 13.89° C | 85% | 1012 hPa | 0 mm | - | 53 W/m² | - |
| 1778160305 | 13.89° C | 86% | 1011.9 hPa | 0 mm | - | 47 W/m² | - |
| 1778160004 | 13.89° C | 86% | 1011.8 hPa | 0 mm | - | 56 W/m² | - |
| 1778159705 | 13.89° C | 87% | 1012.1 hPa | 0 mm | - | 28 W/m² | - |
| 1778159405 | 13.89° C | 87% | 1012.1 hPa | 0 mm | - | 35 W/m² | - |
| 1778159104 | 13.89° C | 88% | 1012 hPa | 0 mm | - | 46 W/m² | - |
| 1778158805 | 13.89° C | 88% | 1011.8 hPa | 0 mm | - | 47 W/m² | - |
| 1778158504 | 13.89° C | 89% | 1011.8 hPa | 0 mm | - | 47 W/m² | - |
| 1778158204 | 13.89° C | 90% | 1011.9 hPa | 0 mm | - | 58 W/m² | - |
| 1778157904 | 13.89° C | 90% | 1011.8 hPa | 0 mm | - | 53 W/m² | - |
| 1778157604 | 13.89° C | 89% | 1011.8 hPa | 0 mm | - | 58 W/m² | - |
| 1778157304 | 13.89° C | 89% | 1011.7 hPa | 0 mm | - | 25 W/m² | - |
| 1778157005 | 13.89° C | 89% | 1011.9 hPa | 0 mm | - | 21 W/m² | - |
| 1778156704 | 13.89° C | 89% | 1011.9 hPa | 0 mm | - | 25 W/m² | - |
| 1778156405 | 13.89° C | 89% | 1011.9 hPa | 0 mm | - | 19 W/m² | - |
| 1778156105 | 13.89° C | 89% | 1011.6 hPa | 0 mm | - | 18 W/m² | - |
| 1778155805 | 13.89° C | 89% | 1011.6 hPa | 0 mm | - | 23 W/m² | - |
| 1778155505 | 13.33° C | 89% | 1011.5 hPa | 0 mm | - | 23 W/m² | - |
| 1778155206 | 13.33° C | 88% | 1011.6 hPa | 0 mm | - | 19 W/m² | - |
* Rain latest hour (hover to see other rain measurements)
** Current wind speed in m/s (hover to see current wind gust speed)